When you browse on this site, cookies collect data to enhance your experience and personalize the content and advertising you see.
Visit our Privacy Policy to learn more. By continuing to use the site, you agree to this use of cookies and data.
  • In Portugal
  • List of Countries
  • For 7 days
  • Water Temperature
  • Satellite Maps
  • Weather Map
  • Weather Widgets
  • user-avatar
    Login

    Hourly Weather Tarija

    Today, 21 January, Monday

    Time Temperature Precipitation Wind Pressure Humidity
    00:00 +18°C° 0 mm 1 mps 597 mmHg 83%
    01:00 +16°C° 0 mm 1 mps 597 mmHg 83%
    02:00 +16°C° 0 mm 1 mps 596 mmHg 84%
    03:00 +15°C° 0 mm 1 mps 596 mmHg 82%
    04:00 +15°C° 0 mm 1 mps 596 mmHg 80%
    05:00 +15°C° 0 mm 1 mps 596 mmHg 78%
    06:00 +18°C° 0 mm 1 mps 597 mmHg 66%
    07:00 +21°C° 0 mm 1 mps 598 mmHg 53%
    08:00 +21°C° 0 mm 0 mps 600 mmHg 42%
    09:00 +25°C° 0 mm 1 mps 600 mmHg 37%
    10:00 +26°C° 0 mm 2 mps 600 mmHg 33%
    11:00 +28°C° 0 mm 2 mps 600 mmHg 28%
    12:00 +28°C° 0 mm 3 mps 600 mmHg 30%
    13:00 +29°C° 0 mm 4 mps 600 mmHg 31%
    14:00 +29°C° 0 mm 4 mps 600 mmHg 33%
    15:00 +29°C° 0 mm 4 mps 600 mmHg 37%
    16:00 +28°C° 0 mm 4 mps 599 mmHg 40%
    17:00 +27°C° 0 mm 4 mps 599 mmHg 44%
    18:00 +25°C° 0 mm 4 mps 599 mmHg 52%
    19:00 +22°C° 0 mm 3 mps 599 mmHg 61%
    20:00 +20°C° 0 mm 2 mps 599 mmHg 69%
    21:00 +20°C° 0.1 mm 2 mps 599 mmHg 71%
    22:00 +20°C° 0.1 mm 2 mps 599 mmHg 74%
    23:00 +19°C° 0.1 mm 2 mps 600 mmHg 76%

    Tomorrow, 22 January, Tuesday

    Time Temperature Precipitation Wind Pressure Humidity
    00:00 +19°C° 0 mm 2 mps 599 mmHg 77%
    01:00 +19°C° 0 mm 1 mps 599 mmHg 79%
    02:00 +19°C° 0 mm 1 mps 599 mmHg 80%
    03:00 +18°C° 0 mm 1 mps 599 mmHg 80%
    04:00 +18°C° 0 mm 1 mps 598 mmHg 80%
    05:00 +18°C° 0 mm 1 mps 598 mmHg 80%
    06:00 +20°C° 0 mm 1 mps 599 mmHg 72%
    07:00 +22°C° 0 mm 1 mps 600 mmHg 65%
    08:00 +24°C° 0 mm 1 mps 601 mmHg 58%
    09:00 +25°C° 0 mm 2 mps 601 mmHg 50%
    10:00 +27°C° 0 mm 2 mps 602 mmHg 41%
    11:00 +28°C° 0 mm 3 mps 602 mmHg 33%
    12:00 +29°C° 0 mm 3 mps 601 mmHg 33%
    13:00 +30°C° 0 mm 3 mps 601 mmHg 32%
    14:00 +30°C° 0 mm 4 mps 601 mmHg 32%
    15:00 +30°C° 0 mm 4 mps 600 mmHg 33%
    16:00 +30°C° 0 mm 4 mps 599 mmHg 35%
    17:00 +29°C° 0 mm 4 mps 599 mmHg 36%
    18:00 +27°C° 0 mm 3 mps 598 mmHg 42%
    19:00 +25°C° 0 mm 2 mps 598 mmHg 48%
    20:00 +23°C° 0 mm 2 mps 598 mmHg 55%
    21:00 +22°C° 0 mm 1 mps 598 mmHg 57%
    22:00 +21°C° 0 mm 1 mps 598 mmHg 59%
    23:00 +21°C° 0 mm 1 mps 598 mmHg 62%

    Day after tomorrow, 23 January, Wednesday

    Time Temperature Precipitation Wind Pressure Humidity
    00:00 +20°C° 0 mm 1 mps 598 mmHg 64%
    01:00 +20°C° 0 mm 1 mps 598 mmHg 65%
    02:00 +20°C° 0 mm 1 mps 598 mmHg 67%
    03:00 +19°C° 0 mm 1 mps 598 mmHg 67%
    04:00 +19°C° 0 mm 1 mps 597 mmHg 68%
    05:00 +19°C° 0 mm 1 mps 597 mmHg 68%
    06:00 +21°C° 0 mm 1 mps 599 mmHg 60%
    07:00 +23°C° 0 mm 1 mps 600 mmHg 52%
    08:00 +23°C° 0 mm 0 mps 601 mmHg 45%
    09:00 +26°C° 0 mm 1 mps 602 mmHg 41%
    10:00 +27°C° 0 mm 2 mps 602 mmHg 38%
    11:00 +29°C° 0 mm 2 mps 603 mmHg 34%
    12:00 +30°C° 0 mm 3 mps 602 mmHg 34%
    13:00 +30°C° 0 mm 4 mps 602 mmHg 34%
    14:00 +32°C° 0 mm 5 mps 601 mmHg 33%
    15:00 +30°C° 0 mm 5 mps 601 mmHg 35%
    16:00 +30°C° 0 mm 5 mps 600 mmHg 37%
    17:00 +29°C° 0 mm 5 mps 600 mmHg 38%
    18:00 +27°C° 0 mm 4 mps 599 mmHg 45%
    19:00 +25°C° 0 mm 3 mps 599 mmHg 52%
    20:00 +22°C° 0 mm 3 mps 599 mmHg 59%
    21:00 +21°C° 0 mm 2 mps 599 mmHg 62%
    22:00 +21°C° 0 mm 2 mps 599 mmHg 64%
    23:00 +21°C° 0 mm 1 mps 599 mmHg 67%

    24 January, Thursday

    Time Temperature Precipitation Wind Pressure Humidity
    00:00 +21°C° 0 mm 1 mps 599 mmHg 69%
    01:00 +20°C° 0 mm 1 mps 599 mmHg 71%
    02:00 +20°C° 0 mm 1 mps 598 mmHg 73%
    03:00 +20°C° 0 mm 1 mps 598 mmHg 74%
    04:00 +19°C° 0 mm 1 mps 598 mmHg 76%
    05:00 +19°C° 0 mm 1 mps 598 mmHg 77%
    06:00 +21°C° 0 mm 1 mps 599 mmHg 69%
    07:00 +23°C° 0 mm 1 mps 600 mmHg 62%
    08:00 +24°C° 0 mm 1 mps 601 mmHg 54%
    09:00 +26°C° 0 mm 1 mps 602 mmHg 48%
    10:00 +28°C° 0 mm 2 mps 602 mmHg 41%
    11:00 +29°C° 0 mm 3 mps 602 mmHg 35%
    12:00 +30°C° 0 mm 3 mps 602 mmHg 34%
    13:00 +32°C° 0 mm 4 mps 602 mmHg 32%
    14:00 +32°C° 0 mm 5 mps 601 mmHg 30%
    15:00 +32°C° 0 mm 5 mps 600 mmHg 31%
    16:00 +30°C° 0 mm 4 mps 600 mmHg 32%
    17:00 +30°C° 0 mm 4 mps 599 mmHg 32%
    18:00 +28°C° 0 mm 3 mps 599 mmHg 38%
    19:00 +25°C° 0 mm 3 mps 598 mmHg 43%
    20:00 +23°C° 0 mm 2 mps 598 mmHg 49%
    21:00 +23°C° 0 mm 2 mps 598 mmHg 51%
    22:00 +22°C° 0 mm 1 mps 599 mmHg 53%
    23:00 +21°C° 0 mm 1 mps 599 mmHg 55%

    25 January, Friday

    Time Temperature Precipitation Wind Pressure Humidity
    00:00 +21°C° 0 mm 1 mps 598 mmHg 56%
    01:00 +21°C° 0 mm 1 mps 598 mmHg 58%
    02:00 +20°C° 0 mm 1 mps 598 mmHg 59%
    03:00 +20°C° 0 mm 1 mps 597 mmHg 59%
    04:00 +19°C° 0 mm 2 mps 597 mmHg 60%
    05:00 +19°C° 0 mm 2 mps 597 mmHg 60%
    06:00 +21°C° 0 mm 2 mps 598 mmHg 56%
    07:00 +23°C° 0 mm 2 mps 599 mmHg 52%
    08:00 +25°C° 0 mm 3 mps 599 mmHg 48%
    09:00 +27°C° 0 mm 3 mps 600 mmHg 43%
    10:00 +28°C° 0 mm 3 mps 600 mmHg 38%
    11:00 +30°C° 0 mm 3 mps 601 mmHg 33%
    12:00 +32°C° 0 mm 4 mps 600 mmHg 32%
    13:00 +32°C° 0 mm 4 mps 600 mmHg 30%
    14:00 +33°C° 0 mm 4 mps 599 mmHg 29%
    15:00 +33°C° 0 mm 5 mps 599 mmHg 30%
    16:00 +32°C° 0 mm 5 mps 598 mmHg 31%
    17:00 +32°C° 0 mm 5 mps 598 mmHg 32%
    18:00 +28°C° 0 mm 5 mps 597 mmHg 37%
    19:00 +26°C° 0 mm 4 mps 597 mmHg 43%
    20:00 +22°C° 0 mm 3 mps 597 mmHg 48%
    21:00 +21°C° 0 mm 3 mps 597 mmHg 50%
    22:00 +21°C° 0 mm 2 mps 597 mmHg 52%
    23:00 +20°C° 0 mm 2 mps 598 mmHg 53%

    26 January, Saturday

    Time Temperature Precipitation Wind Pressure Humidity
    00:00 +21°C° 0 mm 1 mps 597 mmHg 54%
    01:00 +21°C° 0 mm 1 mps 597 mmHg 55%
    02:00 +21°C° 0 mm 1 mps 597 mmHg 55%
    03:00 +21°C° 0 mm 1 mps 597 mmHg 57%
    04:00 +21°C° 0 mm 1 mps 596 mmHg 59%
    05:00 +20°C° 0 mm 1 mps 596 mmHg 61%
    06:00 +22°C° 0 mm 1 mps 597 mmHg 57%
    07:00 +23°C° 0 mm 1 mps 598 mmHg 53%
    08:00 +25°C° 0 mm 1 mps 599 mmHg 50%
    09:00 +26°C° 0.2 mm 1 mps 600 mmHg 47%
    10:00 +27°C° 0.2 mm 2 mps 600 mmHg 43%
    11:00 +28°C° 0.2 mm 3 mps 601 mmHg 40%
    12:00 +29°C° 0.4 mm 3 mps 600 mmHg 41%
    13:00 +29°C° 0.4 mm 4 mps 600 mmHg 41%
    14:00 +29°C° 0.4 mm 5 mps 599 mmHg 41%
    15:00 +28°C° 0.4 mm 4 mps 598 mmHg 43%
    16:00 +27°C° 0.4 mm 4 mps 598 mmHg 45%
    17:00 +26°C° 0.4 mm 4 mps 597 mmHg 48%
    18:00 +25°C° 0.3 mm 3 mps 597 mmHg 53%
    19:00 +22°C° 0.3 mm 3 mps 597 mmHg 58%
    20:00 +20°C° 0.3 mm 3 mps 597 mmHg 64%
    21:00 +20°C° 0.4 mm 3 mps 598 mmHg 66%
    22:00 +20°C° 0.4 mm 2 mps 598 mmHg 68%
    23:00 +19°C° 0.4 mm 2 mps 598 mmHg 71%
    Show more